Regional Weather Roundup
Issued by NWS

Home | Current Version | Previous Version | Graphics & Text | Print | Product List | Glossary On
Versions: 1 2 3 4 5 6 7 8 9 10 11 12 13 14 15 16 17 18 19 20 21 22 23 24 25 26 27 28 29 30 31 32 33 34 35 36 37 38 39 40 41 42 43 44 45 46 47 48 49 50
930
ASUS43 KTOP 231808
RWRKS

WEATHER ROUNDUP FOR KANSAS
NATIONAL WEATHER SERVICE GOODLAND KS
100 PM CDT SUN JUL 23 2017

NOTE:  "FAIR" INDICATES FEW OR NO CLOUDS BELOW 12,000 FEET WITH NO
SIGNIFICANT WEATHER AND/OR OBSTRUCTIONS TO VISIBILITY.

KSZ001>006-013>018-027>032-041>047-231900-
NORTHWEST KANSAS

CITY           SKY/WX    TMP DP  RH WIND       PRES   REMARKS
GOODLAND       SUNNY     88  54  31 E10G20    30.12S
6HR MIN TEMP:  57; 6HR MAX TEMP:  89;

HAYS           SUNNY     89  69  51 N8        30.02F
HILL CITY      SUNNY     90  70  51 VRB7      30.05S HX  95
6HR MIN TEMP:  69; 6HR MAX TEMP:  90;

RUSSELL        SUNNY     90  66  45 N8        29.99F
6HR MIN TEMP:  69; 6HR MAX TEMP:  91;

$$

KSZ061>065-074>080-084>089-231900-
SOUTHWEST KANSAS

CITY           SKY/WX    TMP DP  RH WIND       PRES   REMARKS
DODGE CITY     MOSUNNY   85  65  51 NW5       30.06F
6HR MIN TEMP:  68; 6HR MAX TEMP:  86;

ELKHART          N/A     83  56  39 N10         N/A
GARDEN CITY    SUNNY     84  65  52 E5        30.08F
6HR MIN TEMP:  65; 6HR MAX TEMP:  84;

LIBERAL        SUNNY     84  68  58 NE7       30.07F
PRATT          CLOUDY    81  66  61 CALM      30.03S
6HR MIN TEMP:  68; 6HR MAX TEMP:  82;

$$

KSZ066>073-081>083-090>101-231900-
SOUTHEAST KANSAS

CITY           SKY/WX    TMP DP  RH WIND       PRES   REMARKS
CHANUTE        MOSUNNY   85  70  60 SE5       29.96F
6HR MIN TEMP:  70; 6HR MAX TEMP:  85; 6HR PCP:  0.11;

COFFEYVILLE    CLOUDY    87  67  51 VRB5      29.96S
6HR MIN TEMP:  70; 6HR MAX TEMP:  87; 6HR PCP:  0.12;

HUTCHINSON     MOSUNNY   88  70  55 W5        29.99S
6HR MIN TEMP:  70; 6HR MAX TEMP:  88;

MEDICINE LODGE   N/A     88  66  48 CALM      29.98F
NEWTON         SUNNY     87  70  56 VRB5      29.99F
PARSONS        PTSUNNY   85  69  58 NE3       29.98F
6HR MIN TEMP:  70; 6HR MAX TEMP:  85; 6HR PCP:  0.09;

WICHITA INTL   MOSUNNY   89  72  56 NE5       29.97F HX  96
6HR MIN TEMP:  73; 6HR MAX TEMP:  89; 6HR PCP:  0.01;

WICHITA JABRA  SUNNY     89  69  51 NW6       29.98S
6HR MIN TEMP:  71; 6HR MAX TEMP:  89; 6HR PCP: TRACE;

WICHITA MCCONL SUNNY     88  70  54 N6        29.98S
WINFIELD       PTSUNNY   90  66  45 CALM      29.97S
6HR MIN TEMP:  75; 6HR MAX TEMP:  91;

$$

KSZ007>012-019>026-033>040-048>060-102>105-231900-
NORTHEAST KANSAS

CITY           SKY/WX    TMP DP  RH WIND       PRES   REMARKS
CONCORDIA      SUNNY     90  66  45 VRB5      29.98F
6HR MIN TEMP:  67; 6HR MAX TEMP:  90;

EMPORIA        SUNNY     89  69  51 N6        29.96S
6HR MIN TEMP:  70; 6HR MAX TEMP:  89;

LAWRENCE       SUNNY     90  73  57 NW7       29.93S HX  98
6HR MIN TEMP:  70; 6HR MAX TEMP:  90;

MANHATTAN      SUNNY     91  68  46 VRB5      29.95S HX  95
6HR MIN TEMP:  69; 6HR MAX TEMP:  92;

MARYSVILLE     SUNNY     90  73  58 N6        29.96F HX  98
OLATHE IND     SUNNY     86  71  60 VRB5      29.95S
6HR MIN TEMP:  71; 6HR MAX TEMP:  86;

OLATHE EXE     SUNNY     86  72  62 N6        29.95S
6HR MIN TEMP:  70; 6HR MAX TEMP:  86;

SALINA         SUNNY     92  65  40 N7        29.97F
6HR MIN TEMP:  72; 6HR MAX TEMP:  92;

TOPEKA BILLARD SUNNY     89  75  63 N7        29.94R HX  99
6HR MIN TEMP:  71; 6HR MAX TEMP:  89;

TOPEKA FORBES  SUNNY     90  74  59 MISG      29.95R HX  99
6HR MIN TEMP:  71; 6HR MAX TEMP:  90;

$$




USA.gov is the U.S. government's official web portal to all federal, state and local government web resources and services.